Overview Statistics Trail Chart Weather Telemetry Raw packets
 

This is the latest recevied weather packets stored in our database for station/object XE2AD-3. If no packets are shown the sender has not sent any weather packets the latest 10 day(s).

<< 1 2 3 4 5 >>
Time Temp. Humidity Pressure Rain* Wind** Luminosity Snow
1788480285 15.56° C 86% 799.5 hPa - - - -
1788479082 16.11° C 85% 799.5 hPa - - - -
1788477884 16.11° C 84% 799.7 hPa - - - -
1788468330 30.56° C 83% 799.9 hPa - - - -
1788431280 13.89° C 100% 802.2 hPa - - - -
1788426502 14.44° C 100% 802.3 hPa - - - -
1788424114 14.44° C 100% 802.6 hPa - - - -
1788422918 14.44° C 100% 802.8 hPa - - - -
1788421750 14.44° C 100% 803.1 hPa - - - -
1788420530 14.44° C 100% 803.4 hPa - - - -
1788419340 14.44° C 100% 803.6 hPa - - - -
1788418159 14.44° C 100% 803.7 hPa - - - -
1788414559 13.89° C 100% 803.9 hPa - - - -
1788409772 14.44° C 98% 803.4 hPa - - - -
1788407390 14.44° C 98% 803.5 hPa - - - -
1788406187 14.44° C 95% 803 hPa - - - -
1788403798 14.44° C 92% 802.4 hPa - - - -
1788402604 14.44° C 90% 802.3 hPa - - - -
1788401407 14.44° C 89% 802 hPa - - - -
1788399017 14.44° C 86% 801.5 hPa - - - -
1788397822 13.89° C 84% 801.6 hPa - - - -
1788395441 14.44° C 81% 801.6 hPa - - - -
1788394239 13.89° C 79% 801.6 hPa - - - -
1788393044 13.89° C 78% 801.4 hPa - - - -
1788391848 13.33° C 75% 801.5 hPa - - - -

* Rain since midnight (hover to see other rain measurements)
** Current wind speed in m/s (hover to see current wind gust speed)